Other Public Products
Issued by NWS Grand Forks, ND

Home | Current Version | Previous Version | Graphics & Text | Print | Product List | Glossary On
Versions: 1 2 3 4 5 6 7 8 9 10 11 12 13 14 15 16 17 18 19 20 21 22 23 24 25 26 27 28 29 30 31 32 33 34 35 36 37 38 39 40 41 42 43 44 45 46 47 48 49 50
000
FPUS83 KFGF 251531
OPUFGF
PRAIRIE TO PINES WEATHER ROUNDUP
NATIONAL WEATHER SERVICE EASTERN NORTH DAKOTA/GRAND FORKS ND
900 AM CST SUN JAN 25 2015

 **SATELLITE DATA USED TO AUGMENT SKY COVER AT AUTOMATED STATIONS**
 *****  WEATHER ACROSS EASTERN NORTH DAKOTA  *****

CITY           SKY/WX    TMP DP  RH WIND       PRES   REMARKS
GRAND FORKS    FAIR      12   7  80 N5        30.05R WCI   4
GRAND FORKS AF CLEAR     10   5  82 NE2       30.04S
GRAND CITY NWS   N/A     12 N/A N/A MISG        N/A
BUXTON         NOT AVBL
DEVILS LAKE    CLOUDY    18  10  73 SE3       29.98F
FARGO          CLEAR     19  12  74 N10       30.04R WCI   7
WAHPETON ARPT  SUNNY     21  16  79 N9        30.02R WCI  11
$$

 *****  WEATHER ACROSS CENTRAL AND WESTERN NORTH DAKOTA  *****

CITY           SKY/WX    TMP DP  RH WIND       PRES   REMARKS
JAMESTOWN      CLOUDY    21  16  81 NE5       29.99R WCI  15
BISMARCK       CLOUDY    35  32  88 NW7       29.98F
MINOT          CLOUDY    23  19  85 NW3       29.96F
MINOT AFB      CLOUDY    21  21 100 W5        29.98S WCI  15
GARRISON         N/A     33  31  92 W9        29.95S
WILLISTON      CLOUDY    33  29  85 CALM      29.99S
DICKINSON      CLOUDY    33  28  81 W13       29.96S WCI  24
HETTINGER      CLOUDY    33  27  78 NW9       30.02R
$$

 *****  OTHER OBSERVATIONS NORTHEAST NORTH DAKOTA  *****

CITY           SKY/WX    TMP DP  RH WIND       PRES   REMARKS
WALHALLA         N/A     16  12  86 CALM      30.03F
LANGDON        PTSUNNY   14   9  79 CALM      29.96F
CAVALIER       FAIR      16  10  79 CALM      30.03F
GRAFTON        NOT AVBL
CANDO          CLOUDY    16  10  79 CALM      29.99F
FORT TOTTEN    NOT AVBL
ROLLA          CLOUDY    16  14  93 SW6       29.97S WCI   7
RUGBY          CLOUDY    16  14  93 CALM      29.99R
 ***** THE ABOVE OBSERVATIONS ARE NON NWS ARE NOT QUALITY
        CONTROLLED AND MAY MIS-REPORT RAIN FOR SNOW...
$$

 *****  OTHER OBSERVATIONS SOUTHEAST NORTH DAKOTA *****

CITY           SKY/WX    TMP DP  RH WIND       PRES   REMARKS
COOPERSTOWN    NOT AVBL
VALLEY CITY    NOT AVBL
OAKES            N/A     21  21 100 N6        30.01R WCI  14
GWINNER        SUNNY     19  19 100 N7        30.02R WCI  10
BUFFALO        NOT AVBL
WYNDMERE         N/A     19  16  86 N9          N/A  WCI   9
 ***** THE ABOVE OBSERVATIONS ARE NON NWS ARE NOT QUALITY
       CONTROLLED AND MAY MIS-REPORT RAIN FOR SNOW...
$$

  *****  WEATHER ACROSS NORTHERN MINNESOTA  *****

CITY           SKY/WX    TMP DP  RH WIND       PRES   REMARKS
FLAG ISLAND    CLOUDY     7   0  72 E3        30.03S
WARROAD        MOCLDY     9   1  72 NE3       30.04R
ROSEAU         CLOUDY    10   3  72 NE7       30.03S WCI   0
HALLOCK        PTCLDY    10   5  79 CALM      30.04F
THF RVR FALLS  MOCLDY     9   1  72 CALM      30.01F
HALSTAD          N/A     17  10  74 N8          N/A  WCI   7
FOSSTON        MOCLDY     9   7  92 CALM      30.00R
BAUDETTE       CLOUDY     6  -2  69 E6        30.02R WCI  -4
WASKISH        CLOUDY    10   3  72 CALM      30.01S
CROOKSTON      FAIR      12   9  85 CALM      30.05S
$$
  *****  WEATHER ACROSS CENTRAL AND WEST MINNESOTA  *****

CITY           SKY/WX    TMP DP  RH WIND       PRES   REMARKS
BEMIDJI        CLOUDY    16  10  78 E3        29.98R
PARK RAPIDS    CLOUDY    21  13  71 NE6       29.97R WCI  13
WADENA         CLOUDY    21  18  86 NE5       29.99R WCI  15
DETROIT LAKES  CLEAR     21  18  86 NE3       29.99R
MOORHEAD       CLEAR     19  18  93 N10       30.03R WCI   8
FERGUS FALLS   MOCLDY    21  19  93 N5        30.02R WCI  15
ELBOW LAKE     CLOUDY    21  19  92 N8        29.98R WCI  12
MORRIS MN      CLOUDY    25  21  86 NW12      29.98R WCI  14
STAPLES        CLOUDY    21  16  79 E3        29.99R
WHEATON        CLOUDY    19  16  86 NW8       30.04R WCI   9
$$
  *****  WEATHER ELSEWHERE ACROSS MINNESOTA  *****

CITY           SKY/WX    TMP DP  RH WIND       PRES   REMARKS
DULUTH         LGT SNOW  18  12  77 E8        29.97R WCI   8
INTRNTL FALLS  CLOUDY     3  -4  72 E5        30.04R WCI  -6
ELY            FLURRIES   0  -4  85 CALM      30.02S
CLOQUET        FLURRIES  19  14  79 NE9       29.99R WCI   9
BRAINERD       CLOUDY    20  13  74 E7        30.00R WCI  11
HIBBING        CLOUDY    14   6  70 E3        30.00R
ALEXANDRIA     CLOUDY    26  21  81 E5        29.96R WCI  20
SAINT CLOUD    CLOUDY    20  13  74 NE9       29.98R WCI   9
MINNEAPOLIS    PTSUNNY   21  11  65 NE15      29.97R WCI   8
$$

  *****  WEATHER ACROSS SOUTH DAKOTA  *****

CITY           SKY/WX    TMP DP  RH WIND       PRES   REMARKS
SIOUX FALLS    LGT SNOW  32  31  96 N13       29.95R FOG     WCI  22
BROOKINGS      NOT AVBL
WATERTOWN      CLOUDY    28  25  88 N8        29.95R WCI  20
HURON          CLOUDY    30  27  88 N8        30.00R WCI  22
SISSETON         N/A     22  20  92 N12       29.99R WCI  10
ABERDEEN       CLOUDY    27  23  85 N7        30.01R WCI  19
MITCHELL       CLOUDY    32  30  92 N8        30.00R WCI  25
PIERRE         CLOUDY    37  31  78 NW13      30.00R
MOBRIDGE       CLOUDY    37  34  89 NW9       29.97R
RAPID CITY     CLEAR     33  22  63 N9        30.04R
$$

  *****  SOME WEATHER IN NEARBY STATES *****

CITY           SKY/WX    TMP DP  RH WIND       PRES   REMARKS
GLASGOW MT     PTCLDY    29  25  85 E8        29.93F WCI  21
GREAT FALLS MT CLOUDY    50  36  58 SW23      29.94F
CHEYENNE WY    CLOUDY    40  23  50 NW20G28   30.13S
SCOTTSBLUFF NE CLOUDY    34  28  79 NW8       30.13R
OMAHA NE       CLOUDY    36  33  89 N26G33    29.85R
DES MOINES IA  LGT SNOW  34  31  88 NE16      29.75R VSB 3/4 WCI  24
DAVENPORT IA   LGT SNOW  30  27  88 NE21G29   29.73R VSB 3/4 WCI  17
CHICAGO IL     LGT SNOW  31  29  92 NE18G25   29.76R FOG     WCI  19
EAU CLAIRE WI  CLOUDY    19  10  68 NE13      29.96R WCI   6
LA CROSSE WI   CLOUDY    27  17  66 E6        29.93R WCI  20
$$

  *****  SOME NATIONAL WEATHER *****

CITY           SKY/WX    TMP DP  RH WIND       PRES   REMARKS
LA GUARDIA NY  MOSUNNY   39  28  64 SW8G18    29.74R
RALEIGH NC     MOSUNNY   42  31  64 SW3       29.96R
ATLANTA GA     MOSUNNY   42  30  62 SW9       29.94F
NEW ORLEANS LA MOSUNNY   53  45  74 SW8       30.04S
OKLAHOMA CITY  MOSUNNY   50  28  42 NW25G31   29.99R
ALBUQUERQUE NM PTCLDY    30  20  66 NE5       30.30R
SALT LAKE CITY MOCLDY    31  27  85 S3        30.46S
LOS ANGELES CA CLEAR     49  34  56 E3        30.03S
BOISE ID       MOCLDY    28  26  92 E3        30.46R FOG
SEATTLE WA     FOG       51  51 100 CALM      30.20F VSB 3/4
$$

*** WEATHER ACROSS MANITOBA...SASKATCHEWAN AND ONTARIO ***
                ***ONTARIO***

CITY           SKY/WX    TMP DP  RH WIND       PRES   REMARKS
GERALDTON      MOSUNNY  -17 -22  76 W2        30.08R
THUNDER BAY    PTSUNNY   -9 -13  84 NW3       30.15R
SIOUX LOOKOUT  CLOUDY    -8 -13  77 CALM      30.07R
TORONTO        MOSUNNY   12   1  62 N17G25    29.92R WCI  -5
BIG TROUT LK   PTCLDY   -22 -27  76 SW3       30.10R
PICKLE LAKE    PTCLDY   -18 -26  69 S3        30.07R
DRYDEN         CLOUDY    -2  -8  78 SE5       30.04S WCI -12
KENORA         CLOUDY     1  -6  71 SE6       30.02R WCI -10
$$
                *** MANITOBA***

CITY           SKY/WX    TMP DP  RH WIND       PRES   REMARKS
BRANDON        CLOUDY    12   9  85 SW9       29.99F WCI   0
DAUPHIN        CLEAR     14  10  85 W7        29.94F WCI   4
ISLAND LAKE    MOCLDY   -11 -17  77 SE8       29.99F WCI -28
PILOT MOUND      N/A     12  10  92 SW5         N/A  WCI   4
THE PAS        FLURRIES   9   5  85 S10       29.82F WCI  -6
THOMPSON       FLURRIES  -2  -8  78 S6        29.88F WCI -14
WINNIPEG       MOCLDY    14   5  67 S7        30.04S WCI   4
LYNN LAKE      FLURRIES   1   0  92 SE8       29.71F WCI -12
CHURCHILL      MOCLDY   -27 -35  68 S8        30.01F WCI -48
GILLAM         MOCLDY   -17 -22  76 SE5       29.99F WCI -29
$$
                ***SASKATCHEWAN***

CITY           SKY/WX    TMP DP  RH WIND       PRES   REMARKS
ESTEVAN        CLOUDY   N/A N/A N/A SW9         N/A  FOG
KINDERSLEY     CLOUDY    30  25  80 S10       29.74F WCI  21
LLOYDMINSTER   CLOUDY    34  27  75 SW15      29.62F WCI  24
PRINCE ALBERT  CLOUDY    28  25  86 SW7       29.75F WCI  21
REGINA         FOG       25  25 100 SE8       29.92S VSB 1/2 WCI  16
YORKTON        PTCLDY    14  12  92 S9        29.91F WCI   2



USA.gov is the U.S. government's official web portal to all federal, state and local government web resources and services.